Location: Unspecified
(48.8582°N, 2.2947°E)
Time: 18:33:47
(UTC+02:00)

ISS - Pass Details

Date: 24 March 2019
Orbit: 408 x 410 km, 51.6° (Epoch: 24 April)

Event Time Altitude Azimuth Distance (km) Brightness Sun altitude
Rises 21:01:35 0° 250° (WSW) 2,332 0.7 -18.6°
Reaches altitude 10° 21:03:40 10° 251° (WSW) 1,472 -0.4 -18.9°
Maximum altitude 21:06:58 86° 336° (NNW) 415 -3.9 -19.4°
Enters shadow 21:07:09 78° 50° (NE) 423 -3.9 -19.5°
